SCP
0 0 0 0 0 0 0 0 0 0 0 0 0 0 0 0 0 0 0 0 0 0 0 0 0 0 0 0 0 0 0 0 0 0 0 0 0 0 0 0 0 0 0 0
0 0 0 0 0 0 0 0 0 0 0 0 0 0 0 0 0 0 0 0 0 0 0 0 0 0 0 0 0 0 0 0 0 0 0 0 0 0 0 0 0 0 0 0
0 0 0 0 0 0 0 0 0 0 0 0 0 0 0 0 0 0 0 0 0 0 0 0 0 0 0 0 0 0 0 0 0 0 0 0 0 0 0 0 0 0 0 -0
0 0 0 0 0 0 0 0 0 0 0 0 0 0 0 0 0 0 0 0 0 0 0 0 0 0 0 0 0 0 0 0 0 0 0 -0 0 0 0 0 0 0 0 -0
0 0 0 0 0 0 0 0 0 0 0 0 0 0 0 0 0 0 0 0 0 0 0 0 0 0 0 0 0 0 0 0 0 -0 0 0 0 0 -0 0 0 0 -0 0
0 0 0 0 0 0 0 0 0 0 0 0 0 0 0 0 0 0 0 0 0 0 0 0 0 0 0 0 0 0 0 0 0 0 0 0 0 0 0 0 0 0 0 0
0 0 0 0 0 0 0 0 0 0 0 0 0 0 0 0 0 0 0 0 0 0 0 0 0 0 0 0 0 0 0 0 0 0 0 -0 0 0 -0 0 -0 0 -0 -0
0 0 0 0 0 0 0 0 0 0 0 0 0 0 0 0 0 0 0 0 0 0 0 0 0 0 0 0 0 0 0 0 0 0 0 0 0 -0 0 -0 0 0 0 0
0 0 0 0 0 0 0 0 0 0 0 0 0 0 0 0 0 0 0 0 0 0 0 0 0 0 0 0 0 0 0 0 0 -0 0 0 -0 0 -0 0 0 0 0 -0
0 0 0 0 0 0 0 0 0 0 0 0 0 0 0 0 0 0 0 0 0 0 0 0 0 0 0 0 0 0 0 0 0 -0 0 0 0 0 -0 0 0 -0 -0 -0
0 0 0 0 0 0 0 0 0 0 0 0 0 0 0 0 0 0 0 0 0 0 0 0 0 0 0 0 0 0 0 0 0 -0 0 0 0 -0 0 0 0 -0 -0 -0
0 0 0 0 0 0 0 0 0 0 0 0 0 0 0 0 0 0 0 0 0 0 0 0 0 0 0 0 0 0 0 0 0 0 0 0 0 0 0 -0 -0 -0 -0 0
0 0 0 0 0 0 0 0 0 0 0 0 0 0 0 0 0 0 0 0 0 0 0 0 0 0 0 0 0 0 0 0 0 0 -0 -0 -0 0 -0 -0 -0 -0 0 0
0 0 0 0 0 0 0 0 0 0 0 0 0 0 0 0 -0 0 0 0 0 0 0 0 0 0 0 0 0 0 0 0 0 -0 -0 0 0 -0 -0 -0 0 -0 -0 0
0 0 0 0 0 0 0 0 0 0 0 0 0 0 0 0 0 0 0 0 0 0 0 0 0 0 0 0 0 0 0 0 0 0 -0 0 -0 -0 -0 -0 0 0 0 0
0 0 0 0 0 0 0 0 0 0 0 0 0 0 0 0 0 0 0 0 0 0 0 0 0 0 0 0 0 0 0 0 0 0 -0 -0 -0 -0 -0 -0 0 0 0 0
0 0 0 0 0 0 0 0 0 0 0 0 0 0 0 0 0 0 0 0 0 0 0 0 0 0 0 0 0 0 0 0 0 -0 -0 0 0 0 0 0 0 0 0 0
0 0 0 0 0 0 0 0 0 0 0 0 0 0 0 0 0 0 0 0 0 0 0 0 0 0 0 0 0 0 0 0 -0 0 0 0 0 0 0 0 0 0 0 0
0 0 0 0 0 0 0 0 0 0 0 0 0 0 0 0 0 0 0 0 0 0 0 0 0 0 -0 0 0 0 0 0 0 0 0 0 0 0 0 0 0 0 0 0
0 0 0 0 0 0 0 0 0 0 0 0 0 0 0 0 0 0 0 0 0 0 0 0 0 -0 0 0 0 0 0 0 0 0 0 0 0 0 0 0 0 0 0 0
0 0 0 0 0 0 0 0 0 0 0 0 0 0 0 0 0 0 0 0 0 0 0 0 0 -0 -0 0 0 0 0 0 0 0 0 0 0 0 0 0 0 0 0 0
0 0 0 0 0 0 0 0 0 0 0 0 0 0 0 -0 0 0 0 0 0 0 0 0 -0 -0 0 0 0 0 0 0 -0 0 0 0 0 0 0 0 0 0 0 0
0 0 0 0 0 0 0 0 0 0 0 0 0 0 0 0 0 0 0 0 0 0 0 0 -0 0 -0 -0 -0 0 0 0 -0 0 0 0 0 0 0 0 0 0 0 0
0 0 0 0 0 0 0 0 0 0 0 0 -0 -0 0 0 0 0 0 0 0 0 -0 0 0 0 -0 -0 -0 -0 -0 -0 -0 0 0 0 0 0 0 0 0 0 0 0
0 0 0 0 0 -0 0 0 0 0 -0 -0 -0 -0 0 0 0 -0 0 0 0 -0 -0 0 0 0 -0 -0 -0 -0 -0 -0 -0 0 0 0 0 0 0 0 0 0 0 0
0 0 0 0 0 0 0 0 -0 -0 -0 -0 -0 -0 0 0 0 0 0 0 0 0 0 0 0 0 0 -0 -0 -0 -0 -0 0 0 0 0 0 0 0 0 0 0 0 0
0 0 0 0 0 -0 0 0 0 0 -0 -0 -0 0 0 0 0 0 0 0 0 0 0 0 0 0 0 -0 -0 -0 -0 -0 -0 0 0 0 0 0 0 0 0 0 0 0
Wind_Speed_500mb
62 61 59 66 75 78 70 37 7 23 43 13 6 4 11 29 24 40 6 4 5 9 13 9 8 12 9 18 10 7 7 8 12 20 38 27 21 17 12 7 8 10 7 10
62 62 53 58 66 79 69 38 15 22 21 6 7 14 14 12 29 10 7 6 8 8 7 10 11 19 16 13 10 11 9 7 9 13 5 7 6 12 13 11 7 21 19 8
60 62 52 51 58 65 52 21 8 18 13 23 3 8 11 12 29 15 26 17 8 11 11 8 15 28 9 13 22 34 20 8 14 18 27 12 23 34 30 22 10 17 30 23
53 57 54 51 54 59 38 18 8 10 9 13 25 11 11 17 15 9 37 9 15 11 9 9 12 18 39 31 56 16 15 9 14 32 38 40 40 40 40 30 34 26 35 26
48 49 49 48 50 54 26 16 11 14 43 29 7 7 8 9 20 13 14 24 20 5 8 10 40 39 25 12 4 8 4 7 7 24 32 29 30 21 29 13 30 36 40 35
50 46 41 43 44 46 28 21 17 13 15 11 8 6 8 26 24 13 32 14 7 13 12 52 68 63 49 27 11 4 3 5 5 11 18 29 6 14 20 26 24 13 10 7
48 43 34 37 39 40 42 24 15 7 9 7 10 18 42 21 18 11 33 25 6 25 67 69 41 18 12 13 13 12 7 5 6 9 17 6 9 20 19 28 35 23 24 27
48 42 33 31 34 38 42 29 10 7 8 10 39 16 14 30 42 18 15 31 28 44 33 10 13 10 9 11 9 11 11 3 7 5 6 13 7 13 25 14 17 6 31 35
49 43 36 34 31 41 38 30 15 14 18 10 12 30 15 9 7 12 15 38 23 38 8 7 8 4 8 8 14 10 12 11 6 5 8 7 8 33 48 21 10 32 44 41
50 43 35 28 30 35 33 22 22 19 17 36 14 8 13 12 7 6 16 20 15 22 8 6 4 7 11 6 10 10 11 6 5 8 7 3 16 39 55 5 13 59 66 65
50 39 35 29 29 36 39 25 23 27 20 60 71 48 21 30 28 6 13 17 8 7 8 5 4 5 6 8 6 5 5 7 5 6 7 9 31 13 8 20 58 65 64 51
44 32 25 23 25 30 34 41 21 25 29 55 71 77 92 76 45 51 18 9 9 12 4 3 3 6 5 9 7 5 5 5 5 8 10 9 23 22 40 48 55 41 50 41
39 27 23 23 27 25 31 36 33 29 29 58 44 46 31 19 16 24 20 16 16 12 9 9 3 8 3 5 6 5 3 4 7 8 1 9 33 26 46 53 61 42 34 29
35 27 21 26 24 23 26 34 37 25 17 12 21 19 66 66 64 53 42 46 18 12 14 9 5 5 17 6 7 5 3 6 7 15 19 28 7 47 55 54 45 32 23 27
36 28 24 28 23 24 23 34 34 29 21 10 34 79 5 4 34 28 57 52 57 25 8 6 6 8 6 4 4 5 7 6 4 7 16 13 30 46 45 48 38 24 27 37
33 30 27 21 18 17 16 9 7 9 23 13 8 29 36 16 12 16 46 54 56 38 14 8 10 10 13 4 5 7 13 21 26 11 34 43 47 39 29 26 29 17 27 41
31 23 19 15 15 20 17 11 5 12 16 8 15 18 16 31 18 27 39 49 35 28 12 11 9 11 13 3 5 10 20 26 25 19 25 18 16 21 26 14 13 12 27 48
20 21 25 23 24 32 36 22 11 28 10 8 6 9 19 7 8 10 26 30 23 19 12 8 8 7 8 7 9 15 17 21 13 14 11 13 21 13 12 16 22 20 40 53
20 25 34 28 10 6 12 18 18 21 20 7 9 4 8 23 7 13 18 22 6 12 7 8 15 5 7 7 5 8 12 12 9 9 9 6 3 8 12 12 29 27 45 58
27 29 10 9 10 16 21 11 6 14 15 12 11 12 8 16 11 8 4 5 6 5 11 8 4 5 3 4 7 9 7 10 1 5 7 9 8 6 12 15 19 39 49 58
20 9 7 19 23 17 8 7 9 11 8 14 17 26 12 13 8 8 7 4 3 2 8 7 2 5 6 7 6 5 5 11 5 4 5 6 8 15 23 21 29 40 43 58
17 23 34 24 6 11 7 6 7 10 8 12 9 18 27 13 18 9 5 4 2 8 3 5 4 5 13 11 5 4 7 5 4 7 10 11 13 16 32 33 38 49 49 58
23 7 6 7 7 7 7 7 6 4 9 10 17 10 12 9 10 9 4 4 8 2 3 6 6 17 21 16 12 5 8 7 10 14 12 14 15 17 30 36 42 52 58 63
5 4 8 8 8 9 8 5 8 29 23 24 41 18 10 8 3 6 6 9 4 2 3 8 6 25 19 15 13 14 18 15 13 19 16 22 23 32 35 36 43 56 61 60
7 7 9 12 23 35 37 34 18 15 28 20 18 14 6 6 8 6 0 3 6 8 8 4 26 30 14 16 18 22 24 24 24 23 33 30 37 37 47 51 52 56 60 64
10 16 12 24 19 32 31 32 36 38 23 16 9 6 7 10 6 4 10 4 5 6 3 20 36 25 20 22 21 25 27 30 31 34 36 34 39 40 42 52 58 57 62 68
12 18 32 42 41 38 49 47 39 29 12 3 4 8 7 8 5 8 6 7 7 18 29 29 25 14 22 25 25 31 31 37 34 33 40 41 42 46 45 49 50 47 47 45
Wind_Direction_500mb
346 351 355 358 357 359 4 355 4 358 349 51 11 335 291 318 311 315 317 329 271 265 302 259 235 233 217 207 206 268 164 260 260 244 276 283 251 247 184 242 245 254 274 248
342 349 351 355 360 357 355 341 309 336 4 62 330 307 314 303 318 309 331 289 264 293 288 308 237 269 250 201 145 172 186 236 281 305 350 9 201 208 220 231 245 241 254 240
335 341 349 350 356 358 354 343 353 335 2 19 61 332 282 311 312 314 349 294 302 301 292 235 281 295 314 202 222 250 231 222 216 261 266 269 279 276 275 256 243 262 247 279
332 333 344 344 351 360 1 11 324 3 299 328 317 294 274 319 339 360 317 320 331 333 297 263 245 299 299 292 287 281 167 251 222 254 269 275 274 279 289 252 252 255 270 272
320 325 332 336 340 347 5 346 348 315 296 288 275 300 314 315 329 328 309 328 306 254 283 230 301 302 301 254 281 144 177 252 261 274 263 271 288 287 299 299 252 253 258 268
312 315 325 324 333 339 344 332 312 302 278 298 312 254 339 310 323 314 327 322 306 308 278 295 285 276 270 241 213 117 44 313 283 272 331 307 186 359 327 317 305 328 304 359
315 309 312 316 322 327 328 334 316 279 272 284 267 296 299 292 316 276 308 335 18 307 322 310 306 289 280 50 78 138 148 237 237 290 310 345 157 36 335 311 286 360 357 345
315 310 299 303 303 310 314 319 276 255 280 271 299 319 313 306 315 293 281 343 328 326 326 348 342 351 356 105 149 157 193 212 287 275 271 272 164 18 334 338 302 1 343 328
313 308 295 292 300 302 303 311 255 255 300 250 272 310 306 288 283 331 300 327 322 353 16 15 6 312 292 324 335 184 271 220 246 293 270 276 16 335 322 302 258 0 334 316
313 306 296 285 289 298 293 294 242 238 264 283 285 300 278 285 350 281 295 335 329 11 8 23 10 300 329 296 310 328 315 326 227 285 278 252 6 338 320 3 322 324 314 305
312 302 295 282 279 286 284 290 246 255 255 279 280 265 253 282 291 187 297 344 342 28 39 355 324 277 292 309 255 266 282 317 305 318 280 295 14 355 24 303 300 302 304 315
313 302 299 296 278 280 269 287 238 234 266 265 280 278 282 279 279 259 241 231 292 216 128 239 269 259 269 284 282 159 267 221 264 206 243 317 328 309 323 320 311 320 314 331
321 304 291 295 289 271 264 285 293 292 285 294 276 295 296 259 277 308 231 243 222 210 195 165 215 260 257 264 256 272 243 160 248 318 298 317 315 328 335 332 323 328 328 346
330 316 306 298 300 284 265 284 299 288 270 277 289 290 290 282 271 257 242 232 209 201 197 199 219 235 203 259 257 227 232 317 256 265 289 325 177 329 336 333 345 344 2 37
330 322 313 298 293 277 277 294 292 271 236 281 292 310 355 285 291 283 215 223 233 228 176 206 231 236 236 253 248 242 203 238 255 274 325 285 288 319 335 336 346 352 32 66
325 318 317 302 280 287 307 292 267 187 211 284 305 296 293 352 259 231 207 220 227 223 197 212 242 238 190 247 252 196 235 276 269 270 299 296 299 313 337 335 348 25 65 81
330 324 327 320 297 283 274 269 286 228 218 271 302 297 281 303 286 220 218 224 219 218 219 223 235 217 201 243 250 203 283 291 300 304 309 304 326 322 334 12 40 59 90 97
339 348 339 313 295 290 293 292 280 232 256 249 266 273 305 319 240 193 217 202 195 209 217 236 204 148 217 252 246 272 298 304 301 327 321 312 314 328 350 15 93 81 87 99
342 331 321 306 311 313 317 308 292 243 216 255 244 254 271 331 312 247 183 185 174 200 200 237 154 180 228 228 219 266 294 307 316 343 340 4 159 353 34 45 89 103 94 107
344 333 330 306 331 309 299 277 229 199 209 235 249 249 266 327 328 292 334 197 198 189 232 185 150 247 134 132 3 344 295 322 294 347 350 112 118 82 70 85 96 116 111 115
336 320 282 285 299 302 242 247 204 180 234 223 237 227 234 243 198 239 227 223 239 12 264 135 267 285 180 187 352 335 270 306 309 247 187 199 171 134 116 115 117 125 124 118
295 302 300 296 266 232 252 235 210 209 239 213 215 243 213 248 225 220 235 208 16 243 189 82 276 222 156 146 175 251 337 113 89 135 145 161 174 143 128 124 122 127 135 125
307 283 270 261 247 258 226 228 229 268 337 297 286 320 276 242 256 267 141 225 236 109 63 229 234 174 167 152 189 173 149 135 127 144 150 162 161 144 146 127 125 134 129 129
272 263 266 232 219 238 204 250 267 269 277 319 342 295 240 273 325 218 197 229 93 353 238 239 198 173 169 160 173 157 153 152 145 154 151 147 146 153 145 148 130 133 129 131
241 229 241 236 247 276 289 296 324 339 322 324 333 303 280 267 234 216 83 204 231 200 227 232 161 164 171 177 178 165 156 154 155 151 153 145 144 143 144 142 139 137 139 139
224 230 249 252 290 281 283 280 312 318 348 303 16 274 242 234 229 225 211 182 237 261 221 152 158 164 169 178 175 167 160 160 162 152 148 153 153 140 148 148 147 127 136 147
225 239 238 254 272 271 275 283 302 291 339 335 287 272 329 297 267 351 23 189 193 160 148 161 164 157 165 174 164 162 162 164 159 164 151 155 156 149 144 155 156 149 150 141
Wind_Speed_850mb
62 61 59 66 75 78 70 37 7 23 43 13 6 4 11 29 24 40 6 4 5 9 13 9 8 12 9 18 10 7 7 8 12 20 38 27 21 17 12 7 8 10 7 10
62 62 53 58 66 79 69 38 15 22 21 6 7 14 14 12 29 10 7 6 8 8 7 10 11 19 16 13 10 11 9 7 9 13 5 7 6 12 13 11 7 21 19 8
60 62 52 51 58 65 52 21 8 18 13 23 3 8 11 12 29 15 26 17 8 11 11 8 15 28 9 13 22 34 20 8 14 18 27 12 23 34 30 22 10 17 30 23
53 57 54 51 54 59 38 18 8 10 9 13 25 11 11 17 15 9 37 9 15 11 9 9 12 18 39 31 56 16 15 9 14 32 38 40 40 40 40 30 34 26 35 26
48 49 49 48 50 54 26 16 11 14 43 29 7 7 8 9 20 13 14 24 20 5 8 10 40 39 25 12 4 8 4 7 7 24 32 29 30 21 29 13 30 36 40 35
50 46 41 43 44 46 28 21 17 13 15 11 8 6 8 26 24 13 32 14 7 13 12 52 68 63 49 27 11 4 3 5 5 11 18 29 6 14 20 26 24 13 10 7
48 43 34 37 39 40 42 24 15 7 9 7 10 18 42 21 18 11 33 25 6 25 67 69 41 18 12 13 13 12 7 5 6 9 17 6 9 20 19 28 35 23 24 27
48 42 33 31 34 38 42 29 10 7 8 10 39 16 14 30 42 18 15 31 28 44 33 10 13 10 9 11 9 11 11 3 7 5 6 13 7 13 25 14 17 6 31 35
49 43 36 34 31 41 38 30 15 14 18 10 12 30 15 9 7 12 15 38 23 38 8 7 8 4 8 8 14 10 12 11 6 5 8 7 8 33 48 21 10 32 44 41
50 43 35 28 30 35 33 22 22 19 17 36 14 8 13 12 7 6 16 20 15 22 8 6 4 7 11 6 10 10 11 6 5 8 7 3 16 39 55 5 13 59 66 65
50 39 35 29 29 36 39 25 23 27 20 60 71 48 21 30 28 6 13 17 8 7 8 5 4 5 6 8 6 5 5 7 5 6 7 9 31 13 8 20 58 65 64 51
44 32 25 23 25 30 34 41 21 25 29 55 71 77 92 76 45 51 18 9 9 12 4 3 3 6 5 9 7 5 5 5 5 8 10 9 23 22 40 48 55 41 50 41
39 27 23 23 27 25 31 36 33 29 29 58 44 46 31 19 16 24 20 16 16 12 9 9 3 8 3 5 6 5 3 4 7 8 1 9 33 26 46 53 61 42 34 29
35 27 21 26 24 23 26 34 37 25 17 12 21 19 66 66 64 53 42 46 18 12 14 9 5 5 17 6 7 5 3 6 7 15 19 28 7 47 55 54 45 32 23 27
36 28 24 28 23 24 23 34 34 29 21 10 34 79 5 4 34 28 57 52 57 25 8 6 6 8 6 4 4 5 7 6 4 7 16 13 30 46 45 48 38 24 27 37
33 30 27 21 18 17 16 9 7 9 23 13 8 29 36 16 12 16 46 54 56 38 14 8 10 10 13 4 5 7 13 21 26 11 34 43 47 39 29 26 29 17 27 41
31 23 19 15 15 20 17 11 5 12 16 8 15 18 16 31 18 27 39 49 35 28 12 11 9 11 13 3 5 10 20 26 25 19 25 18 16 21 26 14 13 12 27 48
20 21 25 23 24 32 36 22 11 28 10 8 6 9 19 7 8 10 26 30 23 19 12 8 8 7 8 7 9 15 17 21 13 14 11 13 21 13 12 16 22 20 40 53
20 25 34 28 10 6 12 18 18 21 20 7 9 4 8 23 7 13 18 22 6 12 7 8 15 5 7 7 5 8 12 12 9 9 9 6 3 8 12 12 29 27 45 58
27 29 10 9 10 16 21 11 6 14 15 12 11 12 8 16 11 8 4 5 6 5 11 8 4 5 3 4 7 9 7 10 1 5 7 9 8 6 12 15 19 39 49 58
20 9 7 19 23 17 8 7 9 11 8 14 17 26 12 13 8 8 7 4 3 2 8 7 2 5 6 7 6 5 5 11 5 4 5 6 8 15 23 21 29 40 43 58
17 23 34 24 6 11 7 6 7 10 8 12 9 18 27 13 18 9 5 4 2 8 3 5 4 5 13 11 5 4 7 5 4 7 10 11 13 16 32 33 38 49 49 58
23 7 6 7 7 7 7 7 6 4 9 10 17 10 12 9 10 9 4 4 8 2 3 6 6 17 21 16 12 5 8 7 10 14 12 14 15 17 30 36 42 52 58 63
5 4 8 8 8 9 8 5 8 29 23 24 41 18 10 8 3 6 6 9 4 2 3 8 6 25 19 15 13 14 18 15 13 19 16 22 23 32 35 36 43 56 61 60
7 7 9 12 23 35 37 34 18 15 28 20 18 14 6 6 8 6 0 3 6 8 8 4 26 30 14 16 18 22 24 24 24 23 33 30 37 37 47 51 52 56 60 64
10 16 12 24 19 32 31 32 36 38 23 16 9 6 7 10 6 4 10 4 5 6 3 20 36 25 20 22 21 25 27 30 31 34 36 34 39 40 42 52 58 57 62 68
12 18 32 42 41 38 49 47 39 29 12 3 4 8 7 8 5 8 6 7 7 18 29 29 25 14 22 25 25 31 31 37 34 33 40 41 42 46 45 49 50 47 47 45
Wind_Direction_850mb
346 351 355 358 357 359 4 355 4 358 349 51 11 335 291 318 311 315 317 329 271 265 302 259 235 233 217 207 206 268 164 260 260 244 276 283 251 247 184 242 245 254 274 248
342 349 351 355 360 357 355 341 309 336 4 62 330 307 314 303 318 309 331 289 264 293 288 308 237 269 250 201 145 172 186 236 281 305 350 9 201 208 220 231 245 241 254 240
335 341 349 350 356 358 354 343 353 335 2 19 61 332 282 311 312 314 349 294 302 301 292 235 281 295 314 202 222 250 231 222 216 261 266 269 279 276 275 256 243 262 247 279
332 333 344 344 351 360 1 11 324 3 299 328 317 294 274 319 339 360 317 320 331 333 297 263 245 299 299 292 287 281 167 251 222 254 269 275 274 279 289 252 252 255 270 272
320 325 332 336 340 347 5 346 348 315 296 288 275 300 314 315 329 328 309 328 306 254 283 230 301 302 301 254 281 144 177 252 261 274 263 271 288 287 299 299 252 253 258 268
312 315 325 324 333 339 344 332 312 302 278 298 312 254 339 310 323 314 327 322 306 308 278 295 285 276 270 241 213 117 44 313 283 272 331 307 186 359 327 317 305 328 304 359
315 309 312 316 322 327 328 334 316 279 272 284 267 296 299 292 316 276 308 335 18 307 322 310 306 289 280 50 78 138 148 237 237 290 310 345 157 36 335 311 286 360 357 345
315 310 299 303 303 310 314 319 276 255 280 271 299 319 313 306 315 293 281 343 328 326 326 348 342 351 356 105 149 157 193 212 287 275 271 272 164 18 334 338 302 1 343 328
313 308 295 292 300 302 303 311 255 255 300 250 272 310 306 288 283 331 300 327 322 353 16 15 6 312 292 324 335 184 271 220 246 293 270 276 16 335 322 302 258 0 334 316
313 306 296 285 289 298 293 294 242 238 264 283 285 300 278 285 350 281 295 335 329 11 8 23 10 300 329 296 310 328 315 326 227 285 278 252 6 338 320 3 322 324 314 305
312 302 295 282 279 286 284 290 246 255 255 279 280 265 253 282 291 187 297 344 342 28 39 355 324 277 292 309 255 266 282 317 305 318 280 295 14 355 24 303 300 302 304 315
313 302 299 296 278 280 269 287 238 234 266 265 280 278 282 279 279 259 241 231 292 216 128 239 269 259 269 284 282 159 267 221 264 206 243 317 328 309 323 320 311 320 314 331
321 304 291 295 289 271 264 285 293 292 285 294 276 295 296 259 277 308 231 243 222 210 195 165 215 260 257 264 256 272 243 160 248 318 298 317 315 328 335 332 323 328 328 346
330 316 306 298 300 284 265 284 299 288 270 277 289 290 290 282 271 257 242 232 209 201 197 199 219 235 203 259 257 227 232 317 256 265 289 325 177 329 336 333 345 344 2 37
330 322 313 298 293 277 277 294 292 271 236 281 292 310 355 285 291 283 215 223 233 228 176 206 231 236 236 253 248 242 203 238 255 274 325 285 288 319 335 336 346 352 32 66
325 318 317 302 280 287 307 292 267 187 211 284 305 296 293 352 259 231 207 220 227 223 197 212 242 238 190 247 252 196 235 276 269 270 299 296 299 313 337 335 348 25 65 81
330 324 327 320 297 283 274 269 286 228 218 271 302 297 281 303 286 220 218 224 219 218 219 223 235 217 201 243 250 203 283 291 300 304 309 304 326 322 334 12 40 59 90 97
339 348 339 313 295 290 293 292 280 232 256 249 266 273 305 319 240 193 217 202 195 209 217 236 204 148 217 252 246 272 298 304 301 327 321 312 314 328 350 15 93 81 87 99
342 331 321 306 311 313 317 308 292 243 216 255 244 254 271 331 312 247 183 185 174 200 200 237 154 180 228 228 219 266 294 307 316 343 340 4 159 353 34 45 89 103 94 107
344 333 330 306 331 309 299 277 229 199 209 235 249 249 266 327 328 292 334 197 198 189 232 185 150 247 134 132 3 344 295 322 294 347 350 112 118 82 70 85 96 116 111 115
336 320 282 285 299 302 242 247 204 180 234 223 237 227 234 243 198 239 227 223 239 12 264 135 267 285 180 187 352 335 270 306 309 247 187 199 171 134 116 115 117 125 124 118
295 302 300 296 266 232 252 235 210 209 239 213 215 243 213 248 225 220 235 208 16 243 189 82 276 222 156 146 175 251 337 113 89 135 145 161 174 143 128 124 122 127 135 125
307 283 270 261 247 258 226 228 229 268 337 297 286 320 276 242 256 267 141 225 236 109 63 229 234 174 167 152 189 173 149 135 127 144 150 162 161 144 146 127 125 134 129 129
272 263 266 232 219 238 204 250 267 269 277 319 342 295 240 273 325 218 197 229 93 353 238 239 198 173 169 160 173 157 153 152 145 154 151 147 146 153 145 148 130 133 129 131
241 229 241 236 247 276 289 296 324 339 322 324 333 303 280 267 234 216 83 204 231 200 227 232 161 164 171 177 178 165 156 154 155 151 153 145 144 143 144 142 139 137 139 139
224 230 249 252 290 281 283 280 312 318 348 303 16 274 242 234 229 225 211 182 237 261 221 152 158 164 169 178 175 167 160 160 162 152 148 153 153 140 148 148 147 127 136 147
225 239 238 254 272 271 275 283 302 291 339 335 287 272 329 297 267 351 23 189 193 160 148 161 164 157 165 174 164 162 162 164 159 164 151 155 156 149 144 155 156 149 150 141